{"data":{"norad_id":67007,"epoch":"2026-09-20T14:00:56.445696Z","epoch_age_seconds":73995,"freshness":"FRESH","line1":"1 67007U 25293E   26263.58398664  .00002937  00000+0  25379-3 0  9998","line2":"2 67007  70.0014 322.9575 0003577 271.6271  88.4478 14.98340204 44085","mean_motion":14.98340204,"eccentricity":0.0003577,"inclination_deg":70.0014,"raan_deg":322.9575,"arg_perigee_deg":271.6271,"mean_anomaly_deg":88.4478,"bstar":0.00025379,"rev_number":4408,"period_min":96.106344617581,"perigee_km":569.53826338531,"apogee_km":574.51040880515,"semimajor_km":6950.1613360952,"source":"CELESTRAK","updated_at":"2026-09-21T09:00:36.068935Z"}}